Location: Hoyos del Collado
(40.3594°N, 5.2003°W)
Time: 03:25:03
(UTC+00:00)

USA 229 DEB - Pass Details

Date: 18 April 2024
Orbit: 892 x 1319 km, 63.4° (Epoch: 18 May)

Event Time Altitude Azimuth Distance (km) Brightness Sun altitude
Rises 21:39:25 0° 228° (SW) 3,526 6.5 -26.4°
Reaches altitude 10° 21:41:54 10° 232° (SW) 2,616 5.8 -26.8°
Maximum altitude 21:47:51 55° 310° (NW) 1,163 4.1 -27.5°
Drops below altitude 10° 21:54:24 10° 28° (NNE) 2,866 6.2 -28.4°
Sets 21:57:15 0° 33° (NNE) 3,891 6.8 -28.7°
